Regional Weather Roundup
Issued by NWS New Orleans/Baton Rouge, LA

Home | Current Version | Previous Version | Graphics & Text | Print | Product List | Glossary On
Versions: 1 2 3 4 5 6 7 8 9 10 11 12 13 14 15 16 17 18 19 20 21 22 23 24 25 26 27 28 29 30 31 32 33 34 35 36 37 38 39 40 41 42 43 44 45 46 47 48 49 50
237
ASUS44 KLIX 292005
RWRLIX
NEW ORLEANS REGIONAL WEATHER ROUNDUP
NATIONAL WEATHER SERVICE NEW ORLEANS LA
300 PM CDT TUE JUL 29 2014

NOTE: "FAIR" INDICATES FEW OR NO CLOUDS BELOW 12,000 FEET WITH NO
      SIGNIFICANT WEATHER AND/OR OBSTRUCTIONS TO VISIBILITY.
      SKY/WX - SKY CONDITION AND SIGNIFICANT WEATHER.
      TMP - AIR TEMPERATURE.     DP    - DEWPOINT TEMPERATURE.
      RH  - RELATIVE HUMIDITY.   PRES  - PRESSURE.
      HI  - HEAT INDEX.          WCI   - WIND CHILL INDEX.

*  THESE STATIONS ARE NOT NWS OR FAA STATIONS AND ARE NOT UNDER
   NWS QUALITY CONTROL.

LAZ038-040-048-061>063-065>067-069-292100-
SOUTHEAST LOUISIANA

CITY           SKY/WX    TMP DP  RH WIND       PRES   REMARKS
N.O. AUDUBON     N/A     90  68  47 MISG        N/A
N.O. INTL ARPT PTSUNNY   88  67  49 N10       30.04F
N.O. LAKEFRONT PTSUNNY   86  67  52 NW7       30.04F
N.O. DOWNTOWN*   N/A     86  63  45 N7        30.04S
SLIDELL        MOSUNNY   87  64  46 N9        30.02F
BATON ROUGE    MOSUNNY   87  65  47 NE6       30.05F
BOOTHVILLE     PTSUNNY   85  69  58 VRB6      30.04F
BELLE CHASSE   PTSUNNY   88  65  46 VRB3      30.02F
BOGALUSA*        N/A     88  61  40 NE7       30.05F
GALLIANO*      NOT AVBL
NEW ROADS*       N/A     86  64  48 N7        30.05F
GONZALES*        N/A     87  67  50 NW3       30.03F
HAMMOND*       MOSUNNY   91  59  33 CALM      30.05F
HOUMA*         MOSUNNY   90  66  45 N5        30.04S
PORT FOURCHON* PTCLDY    88  68  51 N7        30.04F

$$

MSZ070-080>082-292100-
SOUTHERN MISSISSIPPI

CITY           SKY/WX    TMP DP  RH WIND       PRES   REMARKS
MCCOMB         MOSUNNY   87  61  41 NE6       30.05F
GULFPORT       MOSUNNY   93  62  35 N8        30.00F
BILOXI         PTSUNNY   88  63  43 N5        30.01F
PASCAGOULA     MOSUNNY   88  64  44 CALM      30.01F
STENNIS ARPT*  MOSUNNY  N/A N/A N/A VRB5      30.02F

$$

COASTAL OBSERVATIONS
LAKE AND NEARSHORE STATIONS

STATION/POSITION TIME  TEMP    WIND        PRES    WAVE
                       AIR SEA DIR/SP/G            HT/PER
                 (UTC) (F)     (DEG/KT/KT) (MB)    (FT/S)
PASCAGOULA       2000   88      40/  5/  7 1015.7
WAVELAND YACHT   2000   85     360/  5/  6 1015.9
GRAND ISLE       2000   87 86   10/  5/  7 1017.6
SOUTHWEST PASS   2000   90 85  360/  8/  9 1017.0
NEW CANAL        2000   83 84   20/  4/  6 1017.6
SHELL BEACH      2000   82 82  330/  2/  3 1016.8

OFFSHORE STATIONS

STATION/POSITION TIME  TEMP    WIND        PRES    WAVE
                       AIR SEA DIR/SP/G            HT/PER
                 (UTC) (F)     (DEG/KT/KT) (MB)    (FT/S)
64 S DAUPHIN ISL 1944   82 87  350/ 12/ 14 1016.2

$$




USA.gov is the U.S. government's official web portal to all federal, state and local government web resources and services.